Tracking 19827 objects as of 21-Aug-2019
HD Live streaming from Space Station
objects crossing your sky now

COSMOS 1818 COOLANT

Track COSMOS 1818 COOLANT now!
10-day predictions


NORAD ID: 36132
Int'l Code: 1987-011K
Perigee: 773.3 km
Apogee: 798.6 km
Inclination: 65.0 °
Period: 100.4 minutes
Semi major axis: 7156 km
RCS: 0.0033 m2 (small)
Launch date: February 1, 1987
Source: Commonwealth of Independent States (former USSR) (CIS)
Launch site: TYURATAM MISSILE AND SPACE COMPLEX (TTMTR)

Note: This is SATELLITE DEBRIS
aabbcc
Your satellite tracking list
Your tracking list is empty




NASA's NSSDC Master Catalog

Two Line Element Set (TLE):
1 36132U 87011K   19231.01045821 -.00000012 +00000-0 +31807-4 0  9996
2 36132 065.0129 011.3775 0017719 251.5496 108.3664 14.33878645551391
Source of the keplerian elements: AFSPC